CW4611 Weather Reports


time (UTC)temp
F
wind
direction
speed
knots
gust
knots
rain 1hr
in
rain 24hr
in
rain mn
in
humidity
%
barometer
mb
20260507001604 49 8 1.7 5.2 0.00 0.20 0.02 38 1025.9
20260507001103 49 13 3.5 6.1 0.00 0.20 0.02 38 1026.0
20260507000104 49 14 4.3 8.7 0.00 0.20 0.02 39 1026.0
20260506234604 49 10 1.7 8.7 0.00 0.20 0.02 40 1025.9
20260506234104 49 12 2.6 7.8 0.00 0.20 0.02 40 1025.8
20260506233604 49 14 2.6 6.1 0.00 0.20 0.02 40 1025.9
20260506231604 49 14 2.6 7.8 0.00 0.20 0.02 39 1026.0
20260506231104 49 14 3.5 10.4 0.00 0.20 0.02 40 1025.9
20260506230604 49 14 3.5 6.1 0.00 0.20 0.02 41 1025.9
20260506230104 49 13 1.7 10.4 0.00 0.20 0.02 40 1025.8
20260506224604 49 14 1.7 2.6 0.00 0.20 0.02 42 1026.0
20260506223604 49 10 2.6 4.3 0.00 0.20 0.02 40 1026.2
20260506223104 49 13 5.2 11.3 0.00 0.20 0.02 39 1026.2
20260506221605 48 10 4.3 8.7 0.00 0.20 0.02 41 1026.3
20260506221105 48 13 1.7 6.1 0.00 0.20 0.02 39 1026.3
20260506220605 48 9 1.7 6.1 0.00 0.20 0.02 39 1026.3
20260506220105 48 10 1.7 10.4 0.00 0.20 0.02 38 1026.4
20260506214606 47 9 4.3 7.8 0.00 0.20 0.02 41 1026.6
20260506214105 47 10 2.6 10.4 0.00 0.20 0.02 41 1026.9
20260506213605 46 10 5.2 8.7 0.00 0.20 0.02 42 1027.0
20260506213105 46 9 4.3 10.4 0.00 0.20 0.02 39 1027.0
20260506211605 46 9 1.7 7.8 0.00 0.21 0.02 37 1027.0
20260506211104 46 10 3.5 10.4 0.00 0.22 0.02 35 1026.9
20260506210605 46 10 4.3 10.4 0.00 0.23 0.02 36 1027.1
20260506210105 46 13 2.6 7.8 0.00 0.24 0.02 35 1027.1
20260506204605 46 10 3.5 6.1 0.00 0.28 0.02 33 1027.1
20260506204105 46 14 4.3 10.4 0.00 0.30 0.02 32 1027.0
20260506203606 45 10 2.6 8.7 0.00 0.30 0.02 35 1027.0
20260506201605 44 10 3.5 6.1 0.00 0.32 0.02 37 1026.9
20260506201105 43 12 5.2 10.4 0.00 0.32 0.02 41 1026.9
20260506200605 43 9 5.2 8.7 0.00 0.32 0.02 36 1026.9
20260506200105 43 9 2.6 7.8 0.00 0.32 0.02 39 1026.8
20260506194605 43 9 4.3 8.7 0.00 0.32 0.02 40 1026.7
20260506194105 44 9 0.9 2.6 0.00 0.32 0.02 46 1026.6
20260506193605 44 9 0.9 8.7 0.00 0.32 0.02 44 1026.7
20260506193105 43 12 3.5 10.4 0.00 0.32 0.02 52 1026.6
20260506191605 43 12 4.3 8.7 0.00 0.32 0.02 50 1026.6
20260506191105 43 10 2.6 6.1 0.00 0.32 0.02 49 1026.6
20260506184604 43 15 4.3 8.7 0.00 0.34 0.02 41 1026.5
20260506184104 43 14 4.3 11.3 0.00 0.34 0.02 45 1026.4
20260506183605 43 10 2.6 7.8 0.00 0.35 0.02 50 1026.3
20260506181605 42 14 5.2 10.4 0.00 0.38 0.02 45 1026.2
20260506180605 41 9 4.3 8.7 0.00 0.39 0.02 51 1026.1
20260506174605 41 13 6.1 12.2 0.00 0.40 0.02 53 1025.6
20260506174105 41 13 6.1 11.3 0.00 0.41 0.02 60 1025.5
20260506173105 39 13 4.3 10.4 0.00 0.41 0.02 63 1025.5
20260506171605 38 14 4.3 8.7 0.00 0.41 0.02 67 1025.4
20260506171105 39 13 4.3 11.3 0.00 0.41 0.02 71 1025.4
20260506170605 39 12 4.3 12.2 0.00 0.41 0.02 77 1025.2
20260506170105 38 12 5.2 11.3 0.00 0.41 0.02 74 1025.1
20260506164605 38 12 5.2 10.4 0.00 0.43 0.02 75 1024.8
20260506164105 37 12 4.3 10.4 0.00 0.44 0.02 74 1024.9
20260506163605 37 13 4.3 10.4 0.00 0.45 0.02 77 1024.8
20260506163105 36 13 4.3 10.4 0.00 0.45 0.02 77 1024.7
20260506161605 37 13 4.3 8.7 0.00 0.49 0.02 76 1024.6
20260506160604 37 13 2.6 10.4 0.00 0.51 0.02 77 1024.4
20260506160105 37 12 3.5 10.4 0.00 0.51 0.02 77 1024.4
20260506154604 36 13 3.5 10.4 0.00 0.51 0.02 80 1024.1
20260506154105 36 12 4.3 7.8 0.00 0.51 0.02 82 1024.1
20260506153605 36 12 4.3 7.0 0.00 0.51 0.02 79 1024.2
20260506153105 35 12 4.3 7.8 0.00 0.51 0.02 82 1024.2
20260506151605 34 12 1.7 4.3 0.00 0.51 0.02 82 1024.1
20260506151105 34 13 1.7 4.3 0.00 0.52 0.02 82 1024.0
20260506144604 33 12 1.7 7.8 0.00 0.62 0.02 81 1024.1
20260506144104 33 14 1.7 6.1 0.00 0.63 0.02 85 1024.0
20260506143105 33 12 1.7 5.2 0.00 0.66 0.02 85 1024.0
20260506141604 31 13 1.7 5.2 0.00 0.68 0.02 85 1023.8
20260506141104 31 13 0.9 4.3 0.00 0.68 0.02 86 1023.8
20260506140605 30 14 0.9 2.6 0.00 0.68 0.02 85 1023.7
20260506140105 30 13 1.7 4.3 0.00 0.68 0.02 83 1023.8
20260506134605 31 13 0.0 1.7 0.00 0.68 0.02 82 1023.7
20260506134104 31 13 0.9 2.6 0.00 0.68 0.02 82 1023.5
20260506133605 31 12 0.9 2.6 0.00 0.68 0.02 82 1023.5
20260506133104 31 13 0.9 2.6 0.00 0.68 0.02 83 1023.4
20260506131604 30 13 0.9 1.7 0.00 0.68 0.02 88 1023.1
20260506131104 29 14 0.9 1.7 0.00 0.69 0.02 88 1023.0
20260506130604 28 14 0.0 0.0 0.00 0.69 0.02 87 1022.9
20260506130105 28 14 0.0 1.7 0.00 0.70 0.02 87 1022.9
20260506124105 29 15 0.0 0.9 0.00 0.72 0.02 86 1022.2
20260506123605 29 15 0.9 2.6 0.00 0.72 0.02 86 1022.1
20260506123105 29 13 1.7 2.6 0.00 0.73 0.02 85 1022.0
20260506121605 30 13 0.0 0.9 0.00 0.76 0.02 86 1021.9
20260506121105 30 13 1.7 2.6 0.00 0.79 0.02 86 1021.9
20260506120605 30 15 0.0 1.7 0.00 0.81 0.02 85 1021.8
20260506120104 30 14 0.9 2.6 0.00 0.83 0.02 84 1021.8
20260506114605 31 9 0.9 1.7 0.00 0.93 0.02 84 1021.6
20260506113605 31 10 0.9 2.6 0.00 0.98 0.02 83 1021.4
20260506113104 31 11 1.7 2.6 0.00 0.99 0.02 85 1021.5
20260506111605 31 11 1.7 5.2 0.00 1.06 0.02 82 1021.4
20260506111104 31 10 1.7 4.3 0.00 1.06 0.02 81 1021.5
20260506110604 31 11 1.7 5.2 0.00 1.07 0.02 83 1021.3
20260506110105 31 11 1.7 5.2 0.00 1.07 0.02 84 1021.2
20260506104604 31 9 1.7 2.6 0.00 1.07 0.02 86 1021.6
20260506104104 31 11 0.9 4.3 0.00 1.07 0.02 86 1021.5
20260506103604 31 9 2.6 2.6 0.00 1.07 0.02 88 1021.6
20260506103104 31 9 2.6 5.2 0.00 1.07 0.02 88 1021.6
20260506101605 31 13 0.0 2.6 0.00 1.07 0.02 88 1021.6
20260506101105 31 13 1.7 2.6 0.00 1.07 0.02 87 1021.4
20260506100604 32 13 0.9 2.6 0.00 1.07 0.02 88 1021.3
20260506100105 32 12 0.9 6.1 0.00 1.07 0.02 88 1021.3
20260506094605 32 12 0.9 4.3 0.00 1.07 0.02 82 1020.8
20260506094104 32 9 1.7 8.7 0.00 1.07 0.02 83 1020.4
20260506093605 32 9 7.8 12.2 0.00 1.07 0.02 81 1020.0
20260506093104 32 10 6.1 10.4 0.00 1.07 0.02 81 1019.8
20260506091604 33 12 0.0 2.6 0.00 1.07 0.02 83 1019.7
20260506091105 34 10 0.9 2.6 0.00 1.07 0.02 84 1019.7
20260506090605 34 11 0.9 2.6 0.00 1.07 0.02 85 1019.5
20260506090104 34 9 1.7 5.2 0.00 1.07 0.02 82 1019.4
20260506084604 34 11 0.9 2.6 0.00 1.07 0.02 85 1019.3
20260506083604 33 9 2.6 7.8 0.01 1.07 0.02 84 1019.1
20260506083105 33 10 4.3 10.4 0.01 1.07 0.02 86 1018.9
20260506080605 34 13 0.9 4.3 0.02 1.07 0.02 93 1018.5
20260506080104 34 11 0.0 2.6 0.02 1.07 0.02 93 1018.3
20260506071605 36 5 0.0 0.0 0.00 1.05 0.00 90 1017.5
20260506071104 36 5 0.0 0.9 0.00 1.05 0.00 90 1017.5
20260506070604 36 5 0.9 1.7 0.00 1.05 0.00 91 1017.6
20260506070104 36 15 0.0 0.0 0.00 1.05 0.00 91 1017.7
20260506061107 35 6 1.7 2.6 0.04 1.05 0.00 91 1017.4
20260506060605 35 9 0.9 2.6 0.04 1.05 0.00 92 1017.3
20260506060105 35 15 0.0 4.3 0.04 1.05 0.00 92 1017.3
20260506050104 35 9 0.9 5.2 0.00 1.01 1.01 89 1015.8
20260506044605 35 9 2.6 5.2 0.00 1.01 1.01 88 1016.1
20260506043604 35 10 4.3 8.7 0.00 1.01 1.01 89 1016.3
20260506041604 35 9 1.7 2.6 0.00 1.01 1.01 90 1016.1
20260506041104 35 9 1.7 2.6 0.01 1.01 1.01 90 1016.2
20260506040604 35 9 1.7 4.3 0.01 1.01 1.01 90 1016.3
20260506034605 35 9 1.7 2.6 0.05 1.01 1.01 89 1016.1
20260506034104 35 9 0.0 0.0 0.07 1.01 1.01 89 1016.1
20260506033104 36 9 0.9 2.6 0.12 1.01 1.01 89 1015.9
20260506031605 36 9 0.9 2.6 0.14 1.01 1.01 89 1015.8
20260506031104 36 9 2.6 4.3 0.13 1.00 1.00 90 1015.8
20260506030604 36 9 1.7 2.6 0.13 1.00 1.00 89 1015.6
20260506024604 36 8 0.9 2.6 0.09 0.96 0.96 86 1015.2
20260506024104 36 11 2.6 4.3 0.07 0.94 0.94 85 1015.1
20260506023604 37 9 1.7 2.6 0.04 0.91 0.91 84 1015.0
20260506021604 40 11 4.3 11.3 0.00 0.87 0.87 77 1014.5
20260506021104 41 10 5.2 12.2 0.00 0.87 0.87 73 1014.4
20260506020604 42 10 4.3 7.8 0.00 0.87 0.87 73 1014.4
20260506020104 42 9 6.1 10.4 0.00 0.87 0.87 78 1014.3
20260506014604 43 10 3.5 5.2 0.00 0.87 0.87 76 1014.0
20260506014104 44 9 2.6 5.2 0.00 0.87 0.87 80 1013.9
20260506013604 44 11 2.6 7.0 0.00 0.87 0.87 78 1013.7
20260506013104 44 11 4.3 8.7 0.00 0.87 0.87 76 1013.8
20260506011603 44 10 0.0 0.9 0.00 0.87 0.87 76 1013.7
20260506011105 44 10 0.9 1.7 0.00 0.87 0.87 77 1013.7
20260506010604 44 9 0.0 0.9 0.00 0.87 0.87 78 1013.7
20260506010104 44 9 0.0 0.9 0.00 0.87 0.87 77 1013.6
20260506004604 44 7 0.0 1.7 0.00 0.87 0.87 77 1013.6
20260506004104 44 14 0.9 1.7 0.00 0.87 0.87 78 1013.7
20260506003604 44 15 0.0 1.7 0.00 0.87 0.87 79 1013.7